Погода в Александровском Заводе

Россия / Забайкальский край     50°55′27″N   117°56′07″E
темп.,
°C
ветер,
м/с
пор.,
м/с
влажн.,
%
обл.,
%
осадки,
мм/ч
давл.,
гПа
погр.,
м
24 мая, вт
вт2400:00+6с11660 0.0 101310
03:00+5ссз21700 0.0 101512
06:00+5ссз22671 0.0 101726
09:00+12ссв712360 0.0 10171439
12:00+16ссв710235 0.0 10172826
15:00+19с61021100 0.0 10153485
18:00+19с6102198 0.0 10153289
21:00+12с223687 0.0 101710
25 мая, ср
ср2500:00+10ссз11426 0.0 102011
03:00+8ссв11475 0.0 102110
06:00+8ссз115024 0.0 102111
09:00+16ссз22335 0.0 1019527
12:00+20с35245 0.0 10162490
15:00+22с452258 0.0 10132765
18:00+22ссз452233 0.0 10112809
21:00+15зсз223610 0.0 101211
26 мая, чт
чт2600:00+13з11368 0.0 101110
03:00+11зюз11395 0.0 101010
06:00+11зюз11421 0.0 100910
09:00+19юз24270 0.0 1007520
12:00+23з44171 0.0 10042943
15:00+25зюз561524 0.0 10003805
18:00+24зюз671824 0.0 9983284
21:00+16юз223249 0.0 99812
27 мая, пт
пт2700:00+15юз5133499 0.1 997309
03:00+12зюз2260100 0.4 99617
06:00+10юз33674 0.0 99543
09:00+16з47454 0.0 9941051
12:00+19з57285 0.0 9922458
15:00+19з782663 0.0 9903064
18:00+13ссз811570 0.1 993964
21:00+9сз6107016 0.1 996664
28 мая, сб
сб2800:00+7сз38735 0.0 997285
03:00+4зсз36772 0.0 999174
06:00+3зсз16795 0.0 1000266
09:00+8сз5747100 0.0 9991072
12:00+12сз563495 0.0 9981856
15:00+14сз5627100 0.0 9972801
18:00+13ссз762875 0.0 9972383
21:00+7с22454 0.0 99912